Location: Beuvrequen
(50.8014°N, 1.6652°E)
Time: 22:10:22
(UTC+00:00)

Cosmos 405 Rocket - Pass Details

Date: 16 October 2021
Orbit: 488 x 551 km, 81.3° (Epoch: 04 December)

Event Time Altitude Azimuth Distance (km) Brightness Sun altitude
Rises 18:30:50 0° 347° (NNW) 2,664 6.5 -15.3°
Reaches altitude 10° 18:32:58 10° 348° (NNW) 1,781 5.6 -15.6°
Maximum altitude 18:36:54 87° 74° (ENE) 542 2.7 -16.3°
Drops below altitude 10° 18:40:52 10° 168° (SSE) 1,801 5.3 -16.9°
Sets 18:43:02 0° 169° (SSE) 2,696 6.2 -17.2°
